TimeAKST,TemperatureF,Dew PointF,Humidity,Sea Level PressureIn,VisibilityMPH,Wind Direction,Wind SpeedMPH,Gust SpeedMPH,PrecipitationIn,Events,Conditions,WindDirDegrees,DateUTC
12:53 AM,35.1,25.0,67,29.72,10.0,East,5.8,-,N/A,,Overcast,80,2013-02-25 09:53:00
1:53 AM,35.1,25.0,67,29.73,10.0,ESE,4.6,-,N/A,,Overcast,110,2013-02-25 10:53:00
3:53 AM,36.0,25.0,64,29.75,10.0,East,3.5,-,N/A,,Overcast,80,2013-02-25 12:53:00
4:53 AM,35.1,24.1,64,29.75,10.0,ENE,5.8,-,N/A,,Overcast,60,2013-02-25 13:53:00
5:53 AM,36.0,25.0,64,29.75,10.0,ENE,5.8,-,N/A,,Overcast,70,2013-02-25 14:53:00
6:53 AM,37.0,25.0,62,29.75,10.0,East,9.2,-,N/A,,Overcast,90,2013-02-25 15:53:00
7:53 AM,37.0,25.0,62,29.75,10.0,East,10.4,23.0,N/A,,Mostly Cloudy,90,2013-02-25 16:53:00
8:53 AM,37.9,21.9,53,29.75,10.0,East,6.9,20.7,N/A,,Mostly Cloudy,90,2013-02-25 17:53:00
9:53 AM,37.9,24.1,57,29.75,10.0,East,9.2,16.1,N/A,,Mostly Cloudy,90,2013-02-25 18:53:00
10:53 AM,39.0,27.0,62,29.76,10.0,East,15.0,23.0,N/A,,Overcast,100,2013-02-25 19:53:00
11:53 AM,39.9,27.0,60,29.75,10.0,ENE,12.7,19.6,N/A,,Mostly Cloudy,60,2013-02-25 20:53:00
12:53 PM,39.9,26.1,58,29.74,10.0,East,11.5,18.4,N/A,,Overcast,80,2013-02-25 21:53:00
1:53 PM,39.9,26.1,58,29.72,10.0,ESE,19.6,28.8,N/A,,Overcast,110,2013-02-25 22:53:00
2:53 PM,39.9,26.1,58,29.72,10.0,East,16.1,26.5,N/A,,Overcast,100,2013-02-25 23:53:00
3:53 PM,39.9,26.1,58,29.70,10.0,East,17.3,26.5,N/A,,Mostly Cloudy,90,2013-02-26 00:53:00
4:53 PM,39.9,26.1,58,29.68,10.0,East,13.8,26.5,N/A,,Overcast,100,2013-02-26 01:53:00
5:53 PM,39.9,25.0,55,29.67,10.0,ESE,16.1,29.9,N/A,,Overcast,110,2013-02-26 02:53:00
6:53 PM,39.9,23.0,51,29.65,10.0,East,11.5,33.4,N/A,,Overcast,100,2013-02-26 03:53:00
7:53 PM,39.9,21.9,49,29.64,10.0,East,12.7,18.4,N/A,,Overcast,90,2013-02-26 04:53:00
8:53 PM,41.0,19.9,43,29.63,10.0,East,11.5,17.3,N/A,,Overcast,90,2013-02-26 05:53:00
9:53 PM,41.0,19.0,41,29.61,10.0,East,15.0,20.7,N/A,,Overcast,90,2013-02-26 06:53:00
10:53 PM,41.0,19.0,41,29.60,10.0,East,12.7,25.3,N/A,,Overcast,90,2013-02-26 07:53:00
11:53 PM,41.0,19.0,41,29.60,10.0,East,10.4,-,N/A,,Overcast,80,2013-02-26 08:53:00